Regional Weather Roundup
Issued by NWS Charleston, SC

Current Version | Previous Version | Graphics & Text | Print | Product List | Glossary On
Versions: 1 2 3 4 5 6 7 8 9 10 11 12 13 14 15 16 17 18 19 20 21 22 23 24 25 26 27 28 29 30 31 32 33 34 35 36 37 38 39 40 41 42 43 44 45 46 47 48 49 50
000 ASUS42 KCHS 311012 RWRCHS REGIONAL WEATHER ROUNDUP NATIONAL WEATHER SERVICE CHARLESTON SC 600 AM EDT MON AUG 31 2015 NOTE: "FAIR" INDICATES FEW OR NO CLOUDS BELOW 12,000 FEET WITH NO SIGNIFICANT WEATHER AND/OR OBSTRUCTIONS TO VISIBILITY. NOT ALL STATIONS ARE QUALITY CONTROLLED BY THE NATIONAL WEATHER SERVICE. USE DATA WITH CAUTION...ESPECIALLY DEWPOINT OBSERVATIONS. SCZ027-030-031-034>040-042>050-311100- ...SOUTHEAST SOUTH CAROLINA... CITY SKY/WX TMP DP RH WIND PRES REMARKS N CHARLESTON HVY RAIN 75 73 93 W7 30.02S FOG WATERFRONT PRK N/A 80 76 87 SE14 29.97F MOUNT PLEASANT LGT RAIN 75 75 100 N3 30.02S JOHNS ISLAND PTSUNNY 79 77 94 S14 30.01S PINOPOLIS NOT AVBL MONCKS CORNER FAIR 73 72 94 NE5 30.03F SUMMERVILLE LGT RAIN 70 70 100 CALM 30.03F BEAUFORT MCAS RAIN 75 73 94 NE6 30.01F BEAUFORT ARPT LGT RAIN 73 73 100 NW8 30.00F HILTON HEAD IS NOT AVBL WALTERBORO DRIZZLE 73 72 94 CALM 30.03F ALLENDALE FOG 73 73 100 CALM 30.03S VSB 1/4 ...SOUTHERN MIDLANDS AND PEE DEE... CITY SKY/WX TMP DP RH WIND PRES REMARKS GEORGETOWN NOT AVBL KINGSTREE NOT AVBL ORANGEBURG CLOUDY 73 70 90 NE5 30.05R BARNWELL CLOUDY 72 72 100 N6 30.05S AIKEN CLOUDY 57 55 94 N3 30.10S MANNING FAIR 72 72 100 CALM 30.05R COLUMBIA CLOUDY 71 67 87 N3 30.06R SUMTER CLOUDY 69 67 92 N3 30.04R FLORENCE HVY RAIN 71 68 90 N6 30.06F FOG MYRTLE BEACH CLOUDY 75 70 83 S10G16 30.08R N MYRTLE BEACH LGT RAIN 78 72 81 S5 30.05R $$ GAZ063-065-086>088-099>101-113>116-118-119-134>141-150-311100- ...SOUTHEAST GEORGIA... CITY SKY/WX TMP DP RH WIND PRES REMARKS SAVANNAH ARPT MOCLDY 74 72 93 N6 30.01F HUNTER AAF CLOUDY 74 74 100 CALM 29.99S FORT STEWART CLOUDY 74 73 95 CALM 29.99S STATESBORO FOG 73 32 22 N3 30.03S VSB 1 SYLVANIA FOG 74 74 100 N5 30.04F VSB 1/2 CLAXTON NOT AVBL ...CSRA...CENTRAL AND FAR SOUTHEAST GEORGIA... CITY SKY/WX TMP DP RH WIND PRES REMARKS THOMSON CLOUDY 70 70 100 N3 30.12S AUGUSTA-BUSH CLOUDY 69 68 96 N5 30.05S FOG AUGUSTA-DANIEL CLOUDY 70 67 90 N7 30.07S FOG SWAINSBORO CLOUDY N/A N/A N/A CALM 30.06R FOG VIDALIA FOG 73 72 94 NE3 30.04S VSB 1 EASTMAN CLOUDY 73 73 100 CALM 30.07R FOG HAZLEHURST CLOUDY 76 76 100 CALM 30.02S ALMA CLOUDY 75 74 96 CALM 30.02R WAYCROSS CLOUDY 77 77 100 N3 30.01S FOG JESUP CLOUDY 77 77 100 NW5 30.01S FOG BAXLEY CLOUDY 75 73 94 NE3 30.02R BRUNSWICK CLOUDY 73 72 94 NW5 30.00R SAINT SIMONS MOCLDY 76 75 97 CALM 29.99R $$ SCZ027-028-034-036>038-045-046-048>050-GAZ119-141-311100- ...LAKE AND SUPPLEMENTAL COASTAL OBSERVATIONS... STATION/POSITION TIME TEMP WIND PRES WAVE SWELL AIR SEA DIR/SP/G HT/PER HT/PER/DIR (UTC) (F) (DEG/KT/KT) (MB) (FT/S) (FT/S/D) UPR LAKE MARION NOT AVBL WINYAH BAY NOT AVBL LAKE MURRAY 0900 69 20/ 1/ 7 1017.6F ACE BASIN NERRS NOT AVBL FORT PULASKI NOT AVBL SAPELO ISLAND 0900 75 CALM 1015.0F $$ ANZ835-935-AMZ111-154-330-350-352-354-370-450-454-472-311100- ...C-MAN AND BUOY OBSERVATIONS... STATION/POSITION TIME TEMP WIND PRES WAVE SWELL AIR SEA DIR/SP/G HT/PER HT/PER/DIR (UTC) (F) (DEG/KT/KT) (MB) (FT/S) (FT/S/D) BUOY 41004 0950 81 84 140/ 21/ 25 1015.8F 6/10 3/10 BUOY 41008 0950 81 84 170/ 6/ 10 1015.5R 5/ 6 5/130/ 6 FOLLY BEACH CMAN 0900 81 140/ 16/ 20 1016.1F CAPERS NEARSHORE 0908 81 160/ 16/ 21 1016.7F FRIPP NEARSHORE 0900 82 190/ 16/ 19 1015.7R STATION/POSITION TIME TEMP WIND PRES WAVE SWELL AIR SEA DIR/SP/G HT/PER HT/PER/DIR (UTC) (F) (DEG/KT/KT) (MB) (FT/S) (FT/S/D) 5E ST. MARYS GA 0921 85 N/A 5/10 FRYING PAN BUOY 0950 83 82 170/ 10/ 12 1018.2F 4/ 9 3/130/ 9 BUOY 41025 0950 80 83 CALM / 2 1020.0R 3/10 3/130/10 CAPE LOOKOUT NC 0900 79 110/ 4/ 5 1019.1F BUOY 41002 0950 83 84 160/ 8/ 10 1019.6F 4/ 8 3/160/ 8 BUOY 41010 0920 82 85 140/ 12/ 14 1016.4F ST AUGUSTINE FL 1000 76 83 200/ 6/ 7 1016.6R $$

USA.gov is the U.S. government's official web portal to all federal, state and local government web resources and services.